Preview of NWS' New Version of Forecast
This preview is not operational and should not be used for support decisions.

Regional Weather Roundup (RWR)

Issued by National Weather Service (NWS)

                            
000
ASUS44 KJAN 151710
RWRMS 

MISSISSIPPI HOURLY WEATHER ROUNDUP
NATIONAL WEATHER SERVICE JACKSON MS
1200 PM CDT SUN SEP 15 2019

NOTE: "FAIR: INDICATES FEW OR NO CLOUDS BELOW 12,000 FEET WITH NO
SIGNIFICANT WEATHER AND/OR OBSTRUCTIONS TO VISIBILITY.

MSZ001>002-007>008-010>013-018>021-025>028-034>036-151800-
NORTHWEST MISSISSIPPI
  
CITY           SKY/WX    TMP DP  RH WIND       PRES   REMARKS
BATESVILLE     FAIR      91  70  49 VRB3      30.13F HX  97           
CLARKSDALE       N/A     91  73  55 SE7       30.13F HX 100           
CLEVELAND      FAIR      91  72  52 E6        30.11F HX  98           
GREENWOOD      FAIR      92  70  48 VRB6      30.11F HX  97           
GREENVILLE     FAIR      92  71  50 NE8       30.10F HX  98           
OLIVE BRANCH   MOSUNNY   91  70  49 E9        30.15F HX  97           
OXFORD         FAIR      90  68  48 SE5G12    30.16F HX  93           
TUNICA           N/A     90  72  55 CALM      30.14F HX  96           
WINONA         FAIR      88  71  56 CALM      30.13F HX  93           
$$

MSZ003>006-009-014>017-022>024-029>033-037>039-151800-
NORTHEAST MISSISSIPPI
  
CITY           SKY/WX    TMP DP  RH WIND       PRES   REMARKS
ABERDEEN       FAIR      90  72  55 CALM      30.15F HX  96           
COLUMBUS AFB   FAIR      89  70  54 SE6       30.13F HX  94           
CORINTH        FAIR      90  70  51 CALM      30.15F HX  95           
GOLDN TRIANGLE FAIR      89  72  56 E9        30.14F HX  96           
STARKVILLE     FAIR      88  70  55 E6        30.15S HX  92           
TUPELO         FAIR      91  69  48 E9        30.14F HX  96           
$$

MSZ040-058-151800-
CENTRAL MISSISSIPPI
  
CITY           SKY/WX    TMP DP  RH WIND       PRES   REMARKS
JACKSON INTL   FAIR      90  68  48 E9        30.09F HX  94           
JACKSON HAWKNS FAIR      90  69  50 NE7       30.10F HX  94           
MADISON        FAIR      88  70  55 E5        30.11F HX  92           
MERIDIAN KEY   FAIR      91  70  49 E13       30.10F HX  96           
MERIDIAN NAS   FAIR      90  70  51 E9        30.11F HX  95           
RAYMOND          N/A     91  73  55 VRB6G13   30.09F HX 100           
VICKSBURG VKS  SUNNY     91  72  52 E8        30.08F HX  98           
$$

MSZ059>079-151800-
SOUTH MISSISSIPPI
  
CITY           SKY/WX    TMP DP  RH WIND       PRES   REMARKS
BROOKHAVEN     FAIR      86  72  62 N6        30.10F HX  92           
HATTIESBURG    FAIR      86  72  62 E8        30.08F HX  92           
LAUREL         MOSUNNY   87  72  61 NE9       30.08F HX  93           
MCCOMB         FAIR      88  70  55 NE8       30.07F HX  93           
NATCHEZ        FAIR      88  70  55 E8        30.08F HX  93           
PINE BELT      FAIR      87  74  64 VRB5      30.09F HX  95           
$$

MSZ080>082-151800-
COASTAL MISSISSIPPI
  
CITY           SKY/WX    TMP DP  RH WIND       PRES   REMARKS
BILOXI         FAIR      90  69  49 E12       30.02F HX  95           
PASCAGOULA     FAIR      90  69  50 E10       30.03F HX  94           
GULFPORT       FAIR      91  67  44 E10       30.02F HX  94           
$$

LAZ007>009-015>016-023>026-151800-
NORTHEAST LOUISIANA
  
CITY           SKY/WX    TMP DP  RH WIND       PRES   REMARKS
BASTROP        FAIR      91  69  48 E5        30.10S HX  96           
TALLULAH/VBURG FAIR      93  70  46 NE6       30.08F HX  99           
VIDALIA        FAIR     N/A N/A N/A NE12      30.06F                  
$$